This demonstration page uses our WeatherBlox Daily Observations layout. Learn more.

Left ArrowRight Arrow

Hourly Observations for October 25, 2015

Temp ( °F °C ) Dew Point ( °F °C ) Humidity (%) Winds ( mph kmh ) Pressure ( in mb ) Visibility ( mi km ) Precip ( " mm )
12:53 am 00:53 Mostly Cloudy 41 5 30 -1.1 65 65 E 13 20 30.13 1020 10 16 0.00 0.00
1:53 am 01:53 Mostly Cloudy 39 3.9 30 -1.1 70 70 ENE 7 11 30.14 1021 10 16 0.00 0.00
2:53 am 02:53 Cloudy 38 3.3 29 -1.7 70 70 NNE 8 13 30.14 1021 10 16 0.00 0.00
3:53 am 03:53 Cloudy 37 2.8 29 -1.7 73 73 ENE 5 7 30.15 1021 10 16 0.00 0.00
4:53 am 04:53 Clear 35 1.7 28 -2.2 76 76 ENE 6 9 30.16 1021 10 16 0.00 0.00
5:53 am 05:53 Cloudy 34 1.1 29 -1.7 82 82 Calm 30.20 1023 10 16 0.00 0.00
6:53 am 06:53 Clear 35 1.7 29 -1.7 78 78 Calm 30.22 1023 10 16 0.00 0.00
7:53 am 07:53 Clear 33 0.6 27 -2.8 78 78 NNE 5 7 30.22 1023 10 16 0.00 0.00
8:53 am 08:53 Sunny 33 0.6 29 -1.7 85 85 Calm 30.24 1024 10 16 0.00 0.00
9:53 am 09:53 Sunny 39 3.9 29 -1.7 67 67 ENE 5 7 30.24 1024 10 16 0.00 0.00
10:53 am 10:53 Sunny 44 6.7 30 -1.1 58 58 E 7 11 30.24 1024 10 16 0.00 0.00
11:53 am 11:53 Sunny 47 8.3 31 -0.6 54 54 VRB 5 7 30.24 1024 10 16 0.00 0.00
12:53 pm 12:53 Sunny 50 10 32 0 50 50 NE 10 17 30.20 1023 10 16 0.00 0.00
1:53 pm 13:53 Sunny 52 11.1 32 0 47 47 E 9 15 30.19 1022 10 16 0.00 0.00
2:53 pm 14:53 Sunny 54 12.2 33 0.6 45 45 E 13 20 30.16 1021 10 16 0.00 0.00
3:53 pm 15:53 Sunny 55 12.8 33 0.6 44 44 ENE 12 19 30.15 1021 10 16 0.00 0.00
4:53 pm 16:53 Sunny 55 12.8 32 0 42 42 E 13 20 30.15 1021 10 16 0.00 0.00
5:53 pm 17:53 Sunny 50 10 32 0 50 50 E 8 13 30.16 1021 10 16 0.00 0.00
6:53 pm 18:53 Clear 45 7.2 32 0 61 61 E 12 19 30.16 1021 10 16 0.00 0.00
7:53 pm 19:53 Clear 42 5.6 32 0 68 68 E 12 19 30.16 1022 10 16 0.00 0.00
8:53 pm 20:53 Clear 40 4.4 31 -0.6 70 70 E 9 15 30.16 1021 10 16 0.00 0.00
9:53 pm 21:53 Clear 40 4.4 32 0 73 73 NE 10 17 30.15 1021 10 16 0.00 0.00
10:53 pm 22:53 Clear 40 4.4 32 0 73 73 E 10 17 30.13 1020 10 16 0.00 0.00
11:53 pm 23:53 Clear 39 3.9 31 -0.6 73 73 E 9 15 30.13 1020 10 16 0.00 0.00

Powered by AerisWeather